| time (UTC) | temp C | wind direction | speed KPH | gust KPH | rain 1hr cm | rain 24hr cm | rain mn cm | humidity % | barometer mb |
| 20260509140703 | 11 | 91 | 0.0 | 0.0 | 0.00 | 0.00 | 0.00 | 89 | 1022.4 |
| 20260509140203 | 11 | 91 | 0.0 | 0.0 | 0.00 | 0.00 | 0.00 | 89 | 1022.4 |
| 20260509133703 | 10 | 98 | 0.0 | 0.0 | 0.00 | 0.00 | 0.00 | 89 | 1022.4 |
| 20260509133204 | 10 | 98 | 0.0 | 0.0 | 0.00 | 0.00 | 0.00 | 89 | 1022.4 |
| 20260509130704 | 10 | 98 | 0.0 | 1.6 | 0.00 | 0.00 | 0.00 | 89 | 1022.3 |
| 20260509130204 | 10 | 98 | 1.6 | 3.2 | 0.00 | 0.00 | 0.00 | 89 | 1022.3 |
| 20260509123704 | 10 | 98 | 0.0 | 0.0 | 0.00 | 0.00 | 0.00 | 89 | 1022.2 |
| 20260509123203 | 10 | 98 | 0.0 | 0.0 | 0.00 | 0.00 | 0.00 | 90 | 1022.2 |
| 20260509120704 | 10 | 98 | 0.0 | 0.0 | 0.00 | 0.00 | 0.00 | 88 | 1022.4 |
| 20260509120204 | 10 | 98 | 0.0 | 0.0 | 0.00 | 0.00 | 0.00 | 89 | 1022.4 |
| 20260509113704 | 10 | 98 | 0.0 | 0.0 | 0.00 | 0.00 | 0.00 | 87 | 1022.5 |
| 20260509113204 | 10 | 98 | 0.0 | 0.0 | 0.00 | 0.00 | 0.00 | 87 | 1022.5 |
| 20260509110704 | 11 | 98 | 0.0 | 0.0 | 0.00 | 0.00 | 0.00 | 86 | 1022.7 |
| 20260509103704 | 12 | 235 | 0.0 | 0.0 | 0.00 | 0.00 | 0.00 | 84 | 1022.7 |
| 20260509103203 | 12 | 235 | 0.0 | 3.2 | 0.00 | 0.00 | 0.00 | 83 | 1022.7 |
| 20260509100705 | 12 | 260 | 0.0 | 1.6 | 0.00 | 0.00 | 0.00 | 83 | 1022.8 |
| 20260509100204 | 12 | 260 | 0.0 | 3.2 | 0.00 | 0.00 | 0.00 | 83 | 1022.9 |
| 20260509093204 | 12 | 260 | 0.0 | 4.8 | 0.00 | 0.00 | 0.00 | 82 | 1023.0 |
| 20260509090704 | 12 | 260 | 3.2 | 8.0 | 0.00 | 0.00 | 0.00 | 81 | 1023.2 |
| 20260509090204 | 12 | 263 | 3.2 | 8.0 | 0.00 | 0.00 | 0.00 | 81 | 1023.3 |
| 20260509083705 | 12 | 278 | 1.6 | 4.8 | 0.00 | 0.00 | 0.00 | 81 | 1023.3 |
| 20260509083204 | 12 | 183 | 1.6 | 9.7 | 0.00 | 0.00 | 0.00 | 81 | 1023.2 |
| 20260509080704 | 13 | 176 | 1.6 | 8.0 | 0.00 | 0.00 | 0.00 | 80 | 1023.2 |
| 20260509080204 | 12 | 273 | 3.2 | 9.7 | 0.00 | 0.00 | 0.00 | 80 | 1023.3 |
| 20260509073704 | 12 | 179 | 4.8 | 12.9 | 0.00 | 0.00 | 0.00 | 79 | 1023.1 |
| 20260509073204 | 12 | 186 | 3.2 | 8.0 | 0.00 | 0.00 | 0.00 | 79 | 1023.1 |
| 20260509070704 | 12 | 117 | 1.6 | 4.8 | 0.00 | 0.00 | 0.00 | 80 | 1023.0 |
| 20260509070204 | 12 | 117 | 1.6 | 4.8 | 0.00 | 0.00 | 0.00 | 80 | 1023.0 |
| 20260509063705 | 12 | 143 | 0.0 | 1.6 | 0.00 | 0.00 | 0.00 | 80 | 1022.9 |
| 20260509060704 | 12 | 143 | 1.6 | 3.2 | 0.00 | 0.00 | 0.00 | 78 | 1022.8 |
| 20260509060204 | 12 | 135 | 0.0 | 3.2 | 0.00 | 0.00 | 0.00 | 78 | 1022.8 |
| 20260509053704 | 13 | 182 | 1.6 | 4.8 | 0.00 | 0.00 | 0.00 | 76 | 1022.7 |
| 20260509053204 | 13 | 234 | 1.6 | 8.0 | 0.00 | 0.00 | 0.00 | 76 | 1022.7 |
| 20260509050704 | 13 | 213 | 3.2 | 4.8 | 0.00 | 0.00 | 0.00 | 74 | 1022.6 |
| 20260509050204 | 13 | 163 | 1.6 | 4.8 | 0.00 | 0.00 | 0.00 | 74 | 1022.6 |
| 20260509043704 | 13 | 244 | 1.6 | 4.8 | 0.00 | 0.00 | 0.00 | 73 | 1022.5 |
| 20260509033704 | 15 | 185 | 1.6 | 4.8 | 0.00 | 0.00 | 0.00 | 67 | 1021.9 |
| 20260509033204 | 15 | 189 | 1.6 | 9.7 | 0.00 | 0.00 | 0.00 | 66 | 1021.8 |
| 20260509030704 | 16 | 317 | 1.6 | 4.8 | 0.00 | 0.00 | 0.00 | 63 | 1021.6 |
| 20260509030204 | 16 | 252 | 1.6 | 16.1 | 0.00 | 0.00 | 0.00 | 62 | 1021.6 |
| 20260509023704 | 16 | 241 | 4.8 | 12.9 | 0.00 | 0.00 | 0.00 | 60 | 1021.4 |
| 20260509023204 | 16 | 258 | 6.4 | 19.3 | 0.00 | 0.00 | 0.00 | 60 | 1021.4 |
| 20260509020703 | 17 | 221 | 8.0 | 16.1 | 0.00 | 0.00 | 0.00 | 55 | 1021.4 |
| 20260509020203 | 17 | 199 | 3.2 | 19.3 | 0.00 | 0.00 | 0.00 | 56 | 1021.4 |
| 20260509013704 | 18 | 276 | 4.8 | 16.1 | 0.00 | 0.00 | 0.00 | 54 | 1021.3 |
| 20260509013204 | 18 | 213 | 9.7 | 22.5 | 0.00 | 0.00 | 0.00 | 52 | 1021.3 |
| 20260509010704 | 18 | 251 | 6.4 | 19.3 | 0.00 | 0.00 | 0.00 | 51 | 1021.4 |
| 20260509000704 | 18 | 234 | 8.0 | 19.3 | 0.00 | 0.00 | 0.00 | 52 | 1021.5 |
| 20260509000204 | 18 | 236 | 4.8 | 22.5 | 0.00 | 0.00 | 0.00 | 52 | 1021.5 |
| 20260508233704 | 17 | 280 | 6.4 | 14.5 | 0.00 | 0.00 | 0.00 | 52 | 1021.4 |
| 20260508230704 | 18 | 234 | 8.0 | 22.5 | 0.00 | 0.00 | 0.00 | 51 | 1021.6 |
| 20260508230204 | 18 | 254 | 4.8 | 22.5 | 0.00 | 0.00 | 0.00 | 51 | 1021.5 |
| 20260508223705 | 18 | 183 | 8.0 | 19.3 | 0.00 | 0.00 | 0.00 | 52 | 1021.6 |
| 20260508223204 | 18 | 229 | 8.0 | 20.9 | 0.00 | 0.00 | 0.00 | 51 | 1021.6 |
| 20260508220203 | 18 | 267 | 11.3 | 32.2 | 0.00 | 0.00 | 0.00 | 51 | 1021.5 |
| 20260508213703 | 16 | 284 | 9.7 | 22.5 | 0.00 | 0.00 | 0.00 | 55 | 1021.5 |
| 20260508213205 | 16 | 282 | 11.3 | 27.4 | 0.00 | 0.00 | 0.00 | 55 | 1021.5 |
| 20260508210204 | 16 | 234 | 4.8 | 27.4 | 0.00 | 0.00 | 0.00 | 56 | 1021.4 |
| 20260508203704 | 15 | 276 | 8.0 | 14.5 | 0.00 | 0.00 | 0.00 | 57 | 1021.3 |
| 20260508203204 | 15 | 266 | 6.4 | 22.5 | 0.00 | 0.00 | 0.00 | 58 | 1021.4 |
| 20260508200703 | 14 | 194 | 8.0 | 22.5 | 0.00 | 0.00 | 0.00 | 61 | 1021.4 |
| 20260508200205 | 14 | 223 | 9.7 | 27.4 | 0.00 | 0.00 | 0.00 | 61 | 1021.4 |
| 20260508193704 | 14 | 254 | 8.0 | 20.9 | 0.00 | 0.00 | 0.00 | 61 | 1021.2 |
| 20260508193205 | 13 | 218 | 8.0 | 19.3 | 0.00 | 0.00 | 0.00 | 63 | 1021.3 |
| 20260508190704 | 13 | 210 | 9.7 | 24.1 | 0.00 | 0.00 | 0.00 | 66 | 1021.2 |
| 20260508190204 | 13 | 239 | 9.7 | 24.1 | 0.00 | 0.00 | 0.00 | 66 | 1021.2 |
| 20260508183204 | 13 | 247 | 4.8 | 19.3 | 0.00 | 0.00 | 0.00 | 68 | 1021.1 |
| 20260508180703 | 13 | 223 | 8.0 | 19.3 | 0.00 | 0.00 | 0.00 | 68 | 1020.7 |
| 20260508180203 | 12 | 181 | 8.0 | 22.5 | 0.00 | 0.00 | 0.00 | 68 | 1020.7 |
| 20260508173703 | 12 | 225 | 4.8 | 16.1 | 0.00 | 0.00 | 0.00 | 73 | 1020.6 |
| 20260508173204 | 12 | 228 | 6.4 | 16.1 | 0.00 | 0.00 | 0.00 | 73 | 1020.5 |
| 20260508170704 | 12 | 167 | 3.2 | 11.3 | 0.00 | 0.00 | 0.00 | 74 | 1020.0 |
| 20260508170204 | 12 | 171 | 4.8 | 19.3 | 0.00 | 0.00 | 0.00 | 74 | 1020.0 |
| 20260508163704 | 12 | 132 | 8.0 | 12.9 | 0.00 | 0.00 | 0.00 | 73 | 1019.8 |
| 20260508160704 | 12 | 173 | 4.8 | 9.7 | 0.00 | 0.00 | 0.00 | 75 | 1019.6 |
| 20260508160204 | 12 | 252 | 4.8 | 14.5 | 0.00 | 0.00 | 0.00 | 75 | 1019.6 |
| 20260508153704 | 11 | 171 | 6.4 | 11.3 | 0.00 | 0.00 | 0.00 | 76 | 1019.8 |
| 20260508150204 | 11 | 176 | 6.4 | 14.5 | 0.00 | 0.00 | 0.00 | 78 | 1019.8 |
| 20260508143704 | 10 | 167 | 6.4 | 19.3 | 0.00 | 0.00 | 0.00 | 81 | 1019.5 |
| 20260508143203 | 10 | 223 | 4.8 | 16.1 | 0.00 | 0.00 | 0.00 | 81 | 1019.4 |